Regional Weather Roundup
Issued by NWS

Home | Current Version | Previous Version | Graphics & Text | Print | Product List | Glossary On
Versions: 1 2 3 4 5 6 7 8 9 10 11 12 13 14 15 16 17 18 19 20 21 22 23 24 25 26 27 28 29 30 31 32 33 34 35 36 37 38 39 40 41 42 43 44 45 46 47 48 49 50
000
ASUS43 KOAX 200810
RWRNE

WEATHER ROUNDUP FOR NEBRASKA
NATIONAL WEATHER SERVICE OMAHA NE
300 AM CDT FRI APR 20 2018

NOTES: SATELLITE DATA IS BEING USED TO AUGMENT CLOUD COVER ABOVE
       12000 FEET.
       "FAIR" INDICATES FEW OR NO CLOUDS BELOW 12,000 FEET WITH NO
       SIGNIFICANT WEATHER AND/OR OBSTRUCTIONS TO VISIBILITY.


NEZ001>004-019>022-054>056-200900-
NEBRASKA PANHANDLE

CITY           SKY/WX    TMP DP  RH WIND       PRES   REMARKS
SCOTTSBLUFF    CLOUDY    42  27  55 SE23G38   30.08F
ALLIANCE       CLOUDY    41  28  60 SE26G37   30.12F
CHADRON        CLOUDY    45  27  49 SE9       30.12F
GORDON         FAIR      40  28  61 SE10      30.18F WCI  34
KIMBALL        CLOUDY    39  25  56 SE21G26   30.05F WCI  29
SIDNEY         CLOUDY    40  26  57 SE24G31   30.10F WCI  29
$$

NEZ057>060-069>072-079>082-200900-
SOUTHWEST NEBRASKA

CITY           SKY/WX    TMP DP  RH WIND       PRES   REMARKS
NORTH PLATTE   MOCLDY    37  29  72 SE10      30.25F WCI  30
IMPERIAL       CLOUDY    40  27  59 E16       30.19F WCI  31
LEXINGTON      MOCLDY    39  28  63 SE7       30.29F WCI  34
MCCOOK         CLOUDY    41  28  60 E10       30.24F
OGALLALA       CLOUDY    42  28  57 SE13      30.20F
$$

NEZ005>010-023>029-035>040-094-200900-
NORTH CENTRAL NEBRASKA

CITY           SKY/WX    TMP DP  RH WIND       PRES   REMARKS
VALENTINE      CLOUDY    37  28  70 E7        30.27F WCI  32
AINSWORTH      CLOUDY    38  29  69 SE9       30.28S WCI  32
BROKEN BOW     MOCLDY    37  27  67 SE7       30.28F WCI  32
O`NEILL        CLOUDY    38  33  81 SE10      30.32F WCI  32
ORD            CLOUDY    38  28  67 SE7       30.31F WCI  33
THEDFORD       CLOUDY    39  29  67 SE7       30.26F WCI  34
$$

NEZ041-046>049-061>064-073>077-083>087-200900-
SOUTH CENTRAL NEBRASKA

CITY           SKY/WX    TMP DP  RH WIND       PRES   REMARKS
GRAND ISLAND   CLOUDY    40  27  59 SE8       30.34F WCI  34
AURORA         CLOUDY    33  26  75 SE7       30.34F WCI  27
HASTINGS       CLOUDY    41  27  57 SE10      30.33F
HEBRON         CLOUDY    34  27  76 CALM      30.36F
HOLDREGE       CLOUDY    38  28  67 SE13      30.29F WCI  31
KEARNEY        CLOUDY    38  27  64 SE9       30.32F WCI  31
YORK             N/A     37  28  70 CALM      30.36F
$$

NEZ011>018-030>034-042>045-200900-
NORTHEAST NEBRASKA

CITY           SKY/WX    TMP DP  RH WIND       PRES   REMARKS
NORFOLK        PTCLDY    34  30  85 E10       30.37F WCI  26
ALBION         CLOUDY    37  30  76 SE5       30.35F WCI  33
BLAIR          PTCLDY    37  28  70 E8        30.41S WCI  30
COLUMBUS       CLOUDY    32  28  85 E9        30.38F WCI  24
FREMONT        MOCLDY    40  29  66 E5        30.41F
TEKAMAH        CLOUDY    29  26  89 NE3       30.43
WAYNE          CLOUDY    32  31  96 CALM      30.41F
$$

NEZ050>053-065>068-078-088>093-200900-
SOUTHEAST NEBRASKA

CITY           SKY/WX    TMP DP  RH WIND       PRES   REMARKS
LINCOLN        CLOUDY    31  25  78 NE3       30.40S
OMAHA EPPLEY   PTCLDY    40  26  57 SE7       30.43F
BEATRICE       PTCLDY    42  30  62 SE7       30.38F
FALLS CITY     CLOUDY    38  26  62 CALM      30.40F
NEBRASKA CITY  PTCLDY    39  28  65 E3        30.40F
PLATTSMOUTH    CLOUDY    38  27  64 E8        30.41F HAZE    WCI  32
$$

NEZ044-045-051>053-067-200900-
OMAHA AREA

CITY           SKY/WX    TMP DP  RH WIND       PRES   REMARKS
OMAHA EPPLEY   PTCLDY    40  26  57 SE7       30.43F
BLAIR          PTCLDY    37  28  70 E8        30.41S WCI  30
FREMONT        MOCLDY    40  29  66 E5        30.41F
MILLARD        PTCLDY    42  28  58 CALM      30.42S
OFFUTT AFB     CLOUDY    36  26  65 E8        30.41F WCI  30
PLATTSMOUTH    CLOUDY    38  27  64 E8        30.41F HAZE    WCI  32
WAHOO          FAIR      36  25  63 E3        30.40F
$$



USA.gov is the U.S. government's official web portal to all federal, state and local government web resources and services.